SWA8241 KLAX-KDEN

Flight info

Callsign SWA8241
Flight time 1h 54m
Altitude 35000
Route ORCKA5 LAS J146 DICEE BUMMP SSKII4
Aircraft B738/M-SDE2E3FGHIRWXY/LB1

Departure

Time 2026-05-06 06:05
Airport Los Angeles International Airport (KLAX)

Arrival

Time 2026-05-06 07:59
Airport Denver International Airport (KDEN)
Time Latitude Longitude Altitude Speed Heading
2026-05-06 05:49 33.94687 -118.40191 125 ft 0 kts 82°
2026-05-06 05:56 33.94686 -118.40202 121 ft 3 kts 82°
2026-05-06 05:56 33.94684 -118.40224 123 ft 3 kts 65°
2026-05-06 05:56 33.94670 -118.40239 119 ft 2 kts 358°
2026-05-06 05:57 33.94667 -118.40239 119 ft 0 kts 358°
2026-05-06 06:03 33.94715 -118.40252 122 ft 15 kts 348°
2026-05-06 06:03 33.94859 -118.40275 123 ft 23 kts 352°
2026-05-06 06:03 33.94915 -118.40121 122 ft 28 kts 84°
2026-05-06 06:03 33.94928 -118.39994 124 ft 1 kts 81°
2026-05-06 06:04 33.94959 -118.39923 121 ft 12 kts 33°
2026-05-06 06:04 33.95038 -118.39955 122 ft 2 kts 274°
2026-05-06 06:04 33.95038 -118.39957 122 ft 0 kts 271°
2026-05-06 06:04 33.95029 -118.40079 125 ft 46 kts 262°
2026-05-06 06:05 33.94954 -118.40810 123 ft 127 kts 263°
2026-05-06 06:05 33.94816 -118.42139 237 ft 185 kts 263°
2026-05-06 06:05 33.94729 -118.43706 1259 ft 182 kts 270°
2026-05-06 06:05 33.94594 -118.45159 2448 ft 179 kts 260°
2026-05-06 06:06 33.94394 -118.46718 2898 ft 202 kts 262°
2026-05-06 06:06 33.94193 -118.48511 3151 ft 228 kts 262°
2026-05-06 06:06 33.93973 -118.50453 3710 ft 239 kts 262°
2026-05-06 06:06 33.93729 -118.52549 4148 ft 260 kts 262°
2026-05-06 06:07 33.93302 -118.54670 5008 ft 264 kts 242°
2026-05-06 06:07 33.92014 -118.56236 5809 ft 270 kts 208°
2026-05-06 06:07 33.90196 -118.56839 6578 ft 277 kts 181°
2026-05-06 06:07 33.88309 -118.56465 7305 ft 282 kts 156°
2026-05-06 06:08 33.86713 -118.55136 8117 ft 281 kts 128°
2026-05-06 06:08 33.85834 -118.53087 8968 ft 275 kts 98°
2026-05-06 06:08 33.85920 -118.50840 9889 ft 268 kts 70°
2026-05-06 06:08 33.86848 -118.48898 10546 ft 276 kts 47°
2026-05-06 06:09 33.88410 -118.47382 10732 ft 301 kts 34°
2026-05-06 06:09 33.90234 -118.45957 10924 ft 325 kts 33°
2026-05-06 06:09 33.92153 -118.44371 11181 ft 342 kts 40°
2026-05-06 06:09 33.93319 -118.43073 11545 ft 348 kts 46°
2026-05-06 06:10 33.95264 -118.39961 12454 ft 353 kts 55°
2026-05-06 06:10 33.96633 -118.37476 13138 ft 358 kts 55°
2026-05-06 06:10 33.98025 -118.34964 13797 ft 363 kts 54°
2026-05-06 06:10 33.98988 -118.33247 14205 ft 367 kts 54°
2026-05-06 06:11 34.00410 -118.30729 14871 ft 368 kts 54°
2026-05-06 06:11 34.01859 -118.28171 15563 ft 370 kts 54°
2026-05-06 06:11 34.03315 -118.25605 16207 ft 373 kts 54°
2026-05-06 06:11 34.04784 -118.23016 16865 ft 375 kts 54°
2026-05-06 06:12 34.06260 -118.20410 17501 ft 378 kts 54°
2026-05-06 06:12 34.07749 -118.17780 18130 ft 380 kts 54°
2026-05-06 06:12 34.09248 -118.15130 18714 ft 383 kts 54°
2026-05-06 06:12 34.10751 -118.12471 19302 ft 384 kts 54°
2026-05-06 06:13 34.12255 -118.09806 19880 ft 385 kts 54°
2026-05-06 06:13 34.13762 -118.07136 20478 ft 385 kts 54°
2026-05-06 06:13 34.15275 -118.04453 21043 ft 387 kts 54°
2026-05-06 06:13 34.16793 -118.01758 21564 ft 389 kts 55°
2026-05-06 06:14 34.18299 -117.99082 22076 ft 391 kts 55°
2026-05-06 06:14 34.19826 -117.96356 22564 ft 393 kts 55°
2026-05-06 06:14 34.21367 -117.93610 23021 ft 396 kts 55°
2026-05-06 06:14 34.22918 -117.90855 23522 ft 397 kts 55°
2026-05-06 06:15 34.24472 -117.88090 24015 ft 398 kts 55°
2026-05-06 06:15 34.26024 -117.85323 24507 ft 397 kts 55°
2026-05-06 06:15 34.27573 -117.82557 24935 ft 397 kts 55°
2026-05-06 06:15 34.29119 -117.79789 25305 ft 398 kts 56°
2026-05-06 06:16 34.30669 -117.77008 25727 ft 399 kts 55°
2026-05-06 06:16 34.32228 -117.74232 26152 ft 399 kts 55°
2026-05-06 06:16 34.33790 -117.71450 26505 ft 400 kts 55°
2026-05-06 06:16 34.35322 -117.68625 26864 ft 401 kts 56°
2026-05-06 06:17 34.36882 -117.65872 27235 ft 403 kts 54°
2026-05-06 06:17 34.38537 -117.63131 27622 ft 403 kts 53°
2026-05-06 06:17 34.40223 -117.60380 28012 ft 404 kts 53°
2026-05-06 06:17 34.41884 -117.57661 28365 ft 404 kts 53°
2026-05-06 06:18 34.43548 -117.54916 28767 ft 404 kts 53°
2026-05-06 06:18 34.45199 -117.52173 29302 ft 400 kts 53°
2026-05-06 06:18 34.46819 -117.49466 30024 ft 394 kts 53°
2026-05-06 06:18 34.48417 -117.46788 30530 ft 391 kts 53°
2026-05-06 06:19 34.50018 -117.44098 30747 ft 394 kts 53°
2026-05-06 06:19 34.51605 -117.41426 30895 ft 398 kts 53°
2026-05-06 06:19 34.53229 -117.38692 31190 ft 398 kts 54°
2026-05-06 06:19 34.54848 -117.35962 31518 ft 398 kts 54°
2026-05-06 06:20 34.56464 -117.33235 31782 ft 399 kts 54°
2026-05-06 06:20 34.58090 -117.30490 32016 ft 401 kts 54°
2026-05-06 06:20 34.59718 -117.27738 32278 ft 401 kts 54°
2026-05-06 06:20 34.61348 -117.24981 32538 ft 402 kts 54°
2026-05-06 06:21 34.62980 -117.22219 32781 ft 403 kts 54°
2026-05-06 06:21 34.64620 -117.19442 33013 ft 404 kts 54°
2026-05-06 06:21 34.66258 -117.16666 33221 ft 405 kts 54°
2026-05-06 06:21 34.67896 -117.13886 33533 ft 404 kts 54°
2026-05-06 06:22 34.69536 -117.11103 33787 ft 405 kts 54°
2026-05-06 06:22 34.71176 -117.08317 34017 ft 406 kts 54°
2026-05-06 06:22 34.72803 -117.05550 34164 ft 409 kts 54°
2026-05-06 06:22 34.74462 -117.02727 34290 ft 412 kts 54°
2026-05-06 06:23 34.76131 -116.99884 34455 ft 413 kts 54°
2026-05-06 06:23 34.77804 -116.97034 34643 ft 414 kts 54°
2026-05-06 06:23 34.79479 -116.94175 34799 ft 416 kts 54°
2026-05-06 06:23 34.81167 -116.91294 34919 ft 418 kts 54°
2026-05-06 06:24 34.84534 -116.85537 34953 ft 414 kts 54°
2026-05-06 06:24 34.87840 -116.79877 34943 ft 406 kts 54°
2026-05-06 06:25 34.91080 -116.74324 34959 ft 406 kts 54°
2026-05-06 06:26 34.96695 -116.66420 34940 ft 415 kts 47°
2026-05-06 06:26 35.00665 -116.61298 34919 ft 416 kts 47°
2026-05-06 06:27 35.04622 -116.56135 34901 ft 415 kts 47°
2026-05-06 06:27 35.08545 -116.50969 34879 ft 414 kts 47°
2026-05-06 06:28 35.12455 -116.45797 34864 ft 413 kts 47°
2026-05-06 06:28 35.16350 -116.40636 34893 ft 412 kts 47°
2026-05-06 06:29 35.20200 -116.35529 34879 ft 410 kts 47°
2026-05-06 06:29 35.24056 -116.30407 34873 ft 408 kts 47°
2026-05-06 06:30 35.27896 -116.25295 34882 ft 407 kts 47°
2026-05-06 06:30 35.31734 -116.20181 34874 ft 407 kts 47°
2026-05-06 06:31 35.35556 -116.15080 34866 ft 409 kts 47°
2026-05-06 06:31 35.39414 -116.09924 34868 ft 411 kts 47°
2026-05-06 06:32 35.43283 -116.04744 34868 ft 412 kts 47°
2026-05-06 06:32 35.47164 -115.99539 34874 ft 414 kts 47°
2026-05-06 06:33 35.51051 -115.94318 34903 ft 415 kts 47°
2026-05-06 06:33 35.54954 -115.89069 34885 ft 416 kts 47°
2026-05-06 06:34 35.58859 -115.83808 34882 ft 417 kts 47°
2026-05-06 06:34 35.62735 -115.78579 34883 ft 416 kts 47°
2026-05-06 06:35 35.66610 -115.73298 34894 ft 415 kts 48°
2026-05-06 06:35 35.70462 -115.68000 34893 ft 414 kts 48°
2026-05-06 06:36 35.74305 -115.62707 34911 ft 414 kts 48°
2026-05-06 06:36 35.78140 -115.57423 34899 ft 413 kts 48°
2026-05-06 06:37 35.81971 -115.52137 34893 ft 412 kts 47°
2026-05-06 06:37 35.85789 -115.46861 34891 ft 412 kts 47°
2026-05-06 06:38 35.89571 -115.41627 34889 ft 411 kts 48°
2026-05-06 06:38 35.93369 -115.36363 34897 ft 410 kts 47°
2026-05-06 06:39 35.97162 -115.31097 34887 ft 410 kts 47°
2026-05-06 06:39 36.00951 -115.25828 34887 ft 410 kts 47°
2026-05-06 06:40 36.04734 -115.20559 34863 ft 410 kts 47°
2026-05-06 06:40 36.08156 -115.14923 34863 ft 412 kts 59°
2026-05-06 06:41 36.10391 -115.08413 34868 ft 415 kts 67°
2026-05-06 06:41 36.12396 -115.01701 34801 ft 416 kts 66°
2026-05-06 06:42 36.14450 -114.94924 34942 ft 423 kts 66°
2026-05-06 06:42 36.16541 -114.88061 34987 ft 427 kts 66°
2026-05-06 06:42 36.17591 -114.84611 35179 ft 428 kts 66°
2026-05-06 06:43 36.18640 -114.81163 35374 ft 428 kts 66°
2026-05-06 06:43 36.19697 -114.77709 35524 ft 430 kts 66°
2026-05-06 06:43 36.20749 -114.74288 35639 ft 432 kts 66°
2026-05-06 06:43 36.21820 -114.70801 35785 ft 433 kts 66°
2026-05-06 06:44 36.22891 -114.67312 35950 ft 434 kts 66°
2026-05-06 06:44 36.23966 -114.63804 36062 ft 436 kts 66°
2026-05-06 06:44 36.25043 -114.60283 36216 ft 437 kts 66°
2026-05-06 06:44 36.26120 -114.56756 36367 ft 438 kts 67°
2026-05-06 06:45 36.27202 -114.53207 36492 ft 440 kts 67°
2026-05-06 06:45 36.28278 -114.49651 36725 ft 439 kts 66°
2026-05-06 06:45 36.29356 -114.46094 36725 ft 443 kts 66°
2026-05-06 06:46 36.31525 -114.38959 36734 ft 441 kts 66°
2026-05-06 06:46 36.33679 -114.31852 36729 ft 440 kts 66°
2026-05-06 06:47 36.35833 -114.24722 36844 ft 444 kts 67°
2026-05-06 06:47 36.37993 -114.17552 36844 ft 446 kts 67°
2026-05-06 06:48 36.40158 -114.10338 36843 ft 445 kts 67°
2026-05-06 06:48 36.42313 -114.03144 36839 ft 444 kts 67°
2026-05-06 06:49 36.44459 -113.95963 36873 ft 443 kts 67°
2026-05-06 06:49 36.46599 -113.88784 36870 ft 443 kts 67°
2026-05-06 06:50 36.48737 -113.81592 36882 ft 444 kts 67°
2026-05-06 06:50 36.50875 -113.74382 36914 ft 445 kts 68°
2026-05-06 06:51 36.53019 -113.67134 36890 ft 448 kts 68°
2026-05-06 06:51 36.55157 -113.59885 36907 ft 450 kts 68°
2026-05-06 06:52 36.57314 -113.52555 36904 ft 453 kts 68°
2026-05-06 06:52 36.59485 -113.45155 36914 ft 456 kts 68°
2026-05-06 06:53 36.61659 -113.37727 36913 ft 458 kts 68°
2026-05-06 06:53 36.63835 -113.30257 36920 ft 460 kts 68°
2026-05-06 06:54 36.65991 -113.22794 36930 ft 461 kts 68°
2026-05-06 06:54 36.68154 -113.15280 36949 ft 460 kts 69°
2026-05-06 06:55 36.70310 -113.07776 36969 ft 460 kts 69°
2026-05-06 06:55 36.72460 -113.00273 36981 ft 459 kts 69°
2026-05-06 06:56 36.74600 -112.92785 36983 ft 458 kts 69°
2026-05-06 06:56 36.76733 -112.85303 36982 ft 457 kts 69°
2026-05-06 06:57 36.78860 -112.77821 36977 ft 456 kts 69°
2026-05-06 06:57 36.80619 -112.71616 36955 ft 456 kts 69°
2026-05-06 06:58 36.83074 -112.62936 36932 ft 455 kts 69°
2026-05-06 06:58 36.84823 -112.56731 36920 ft 455 kts 69°
2026-05-06 06:59 36.86925 -112.49260 36920 ft 455 kts 69°
2026-05-06 06:59 36.89021 -112.41792 36905 ft 456 kts 68°
2026-05-06 07:00 36.91124 -112.34311 36911 ft 457 kts 69°
2026-05-06 07:00 36.93231 -112.26804 36910 ft 458 kts 69°
2026-05-06 07:01 36.95327 -112.19313 36891 ft 460 kts 68°
2026-05-06 07:01 36.97436 -112.11747 36893 ft 462 kts 68°
2026-05-06 07:02 36.99549 -112.04147 36862 ft 463 kts 70°
2026-05-06 07:02 37.01664 -111.96522 36870 ft 464 kts 69°
2026-05-06 07:03 37.03783 -111.88860 36830 ft 466 kts 68°
2026-05-06 07:03 37.05878 -111.81237 36847 ft 466 kts 69°
2026-05-06 07:04 37.07990 -111.73567 36813 ft 466 kts 69°
2026-05-06 07:04 37.10097 -111.65891 36808 ft 466 kts 69°
2026-05-06 07:05 37.12195 -111.58215 36812 ft 465 kts 68°
2026-05-06 07:05 37.14284 -111.50540 36878 ft 464 kts 69°
2026-05-06 07:06 37.16365 -111.42884 36870 ft 463 kts 69°
2026-05-06 07:06 37.18438 -111.35243 36850 ft 462 kts 68°
2026-05-06 07:07 37.20501 -111.27602 36825 ft 462 kts 69°
2026-05-06 07:07 37.22702 -111.20042 36783 ft 459 kts 63°
2026-05-06 07:08 37.25528 -111.12921 36800 ft 459 kts 60°
2026-05-06 07:08 37.28463 -111.05801 36796 ft 460 kts 60°
2026-05-06 07:09 37.31368 -110.98625 36776 ft 461 kts 61°
2026-05-06 07:09 37.34250 -110.91388 36777 ft 463 kts 62°
2026-05-06 07:10 37.37118 -110.84129 36773 ft 464 kts 61°
2026-05-06 07:10 37.39972 -110.76889 36781 ft 466 kts 62°
2026-05-06 07:11 37.42854 -110.69567 36762 ft 468 kts 62°
2026-05-06 07:11 37.45741 -110.62216 36761 ft 469 kts 62°
2026-05-06 07:12 37.48631 -110.54839 36772 ft 470 kts 62°
2026-05-06 07:12 37.51528 -110.47430 36773 ft 471 kts 62°
2026-05-06 07:13 37.54420 -110.40013 36766 ft 472 kts 62°
2026-05-06 07:13 37.57308 -110.32589 36782 ft 471 kts 62°
2026-05-06 07:14 37.60186 -110.25174 36784 ft 470 kts 62°
2026-05-06 07:14 37.63041 -110.17801 36787 ft 470 kts 62°
2026-05-06 07:15 37.65902 -110.10394 36793 ft 469 kts 62°
2026-05-06 07:15 37.68759 -110.02981 36812 ft 469 kts 62°
2026-05-06 07:16 37.71612 -109.95558 36807 ft 470 kts 62°
2026-05-06 07:16 37.74461 -109.88130 36814 ft 470 kts 62°
2026-05-06 07:17 37.77311 -109.80682 36808 ft 470 kts 63°
2026-05-06 07:17 37.80140 -109.73270 36814 ft 471 kts 63°
2026-05-06 07:18 37.82990 -109.65782 36865 ft 473 kts 63°
2026-05-06 07:18 37.85845 -109.58266 36864 ft 474 kts 63°
2026-05-06 07:19 37.88705 -109.50720 36850 ft 475 kts 63°
2026-05-06 07:19 37.91545 -109.43204 36824 ft 477 kts 63°
2026-05-06 07:20 37.94404 -109.35620 36819 ft 477 kts 63°
2026-05-06 07:20 37.97268 -109.28004 36818 ft 478 kts 63°
2026-05-06 07:21 38.00129 -109.20377 36812 ft 479 kts 63°
2026-05-06 07:21 38.02992 -109.12726 36811 ft 480 kts 63°
2026-05-06 07:22 38.05849 -109.05070 36816 ft 480 kts 63°
2026-05-06 07:22 38.08688 -108.97446 36819 ft 481 kts 63°
2026-05-06 07:23 38.11577 -108.89780 36817 ft 481 kts 62°
2026-05-06 07:23 38.14587 -108.82166 36806 ft 481 kts 62°
2026-05-06 07:24 38.17601 -108.74572 36810 ft 482 kts 62°
2026-05-06 07:24 38.20604 -108.66935 36815 ft 482 kts 62°
2026-05-06 07:25 38.23574 -108.59334 36820 ft 483 kts 62°
2026-05-06 07:25 38.26565 -108.51655 36817 ft 484 kts 62°
2026-05-06 07:26 38.29556 -108.43961 36804 ft 485 kts 62°
2026-05-06 07:26 38.32548 -108.36247 36805 ft 486 kts 62°
2026-05-06 07:27 38.35521 -108.28559 36834 ft 487 kts 62°
2026-05-06 07:27 38.38514 -108.20803 36853 ft 488 kts 62°
2026-05-06 07:28 38.41505 -108.13031 36888 ft 488 kts 63°
2026-05-06 07:28 38.45983 -108.01360 36942 ft 488 kts 63°
2026-05-06 07:29 38.48942 -107.93568 36953 ft 488 kts 63°
2026-05-06 07:29 38.51884 -107.85765 36954 ft 488 kts 63°
2026-05-06 07:30 38.54826 -107.77945 36796 ft 488 kts 63°
2026-05-06 07:30 38.57761 -107.70133 36795 ft 488 kts 63°
2026-05-06 07:31 38.60678 -107.62350 36783 ft 488 kts 63°
2026-05-06 07:31 38.63609 -107.54508 36806 ft 488 kts 63°
2026-05-06 07:32 38.66538 -107.46670 36789 ft 489 kts 63°
2026-05-06 07:32 38.69507 -107.38834 36821 ft 489 kts 63°
2026-05-06 07:33 38.72487 -107.30977 36803 ft 491 kts 63°
2026-05-06 07:33 38.75464 -107.23094 36806 ft 492 kts 63°
2026-05-06 07:34 38.78440 -107.15182 36790 ft 493 kts 63°
2026-05-06 07:34 38.81417 -107.07241 36790 ft 494 kts 63°
2026-05-06 07:35 38.84387 -106.99289 36785 ft 494 kts 63°
2026-05-06 07:35 38.87332 -106.91381 36794 ft 494 kts 63°
2026-05-06 07:36 38.88828 -106.87372 36447 ft 502 kts 63°
2026-05-06 07:36 38.90337 -106.83324 35941 ft 501 kts 63°
2026-05-06 07:36 38.91836 -106.79289 35343 ft 500 kts 63°
2026-05-06 07:36 38.93331 -106.75257 34721 ft 499 kts 63°
2026-05-06 07:37 38.94820 -106.71234 34109 ft 497 kts 63°
2026-05-06 07:37 38.96299 -106.67232 33513 ft 495 kts 63°
2026-05-06 07:37 38.97785 -106.63209 32627 ft 498 kts 63°
2026-05-06 07:37 38.99251 -106.59235 31901 ft 498 kts 63°
2026-05-06 07:38 39.00726 -106.55226 31484 ft 492 kts 62°
2026-05-06 07:38 39.02173 -106.51272 31037 ft 486 kts 62°
2026-05-06 07:38 39.03607 -106.47352 30593 ft 482 kts 62°
2026-05-06 07:38 39.05026 -106.43466 30149 ft 477 kts 62°
2026-05-06 07:39 39.06433 -106.39608 29646 ft 473 kts 62°
2026-05-06 07:39 39.07824 -106.35790 29124 ft 469 kts 62°
2026-05-06 07:39 39.09201 -106.32007 28661 ft 464 kts 62°
2026-05-06 07:39 39.10563 -106.28259 28177 ft 460 kts 62°
2026-05-06 07:40 39.11913 -106.24544 27672 ft 457 kts 62°
2026-05-06 07:40 39.13237 -106.20896 27184 ft 454 kts 62°
2026-05-06 07:40 39.14567 -106.17223 26695 ft 451 kts 62°
2026-05-06 07:40 39.15889 -106.13568 26173 ft 447 kts 62°
2026-05-06 07:41 39.17198 -106.09951 25679 ft 444 kts 63°
2026-05-06 07:41 39.18500 -106.06347 25192 ft 442 kts 63°
2026-05-06 07:41 39.19791 -106.02771 24695 ft 439 kts 63°
2026-05-06 07:41 39.21078 -105.99203 24207 ft 437 kts 63°
2026-05-06 07:42 39.22357 -105.95652 23702 ft 436 kts 63°
2026-05-06 07:42 39.23633 -105.92101 23161 ft 435 kts 63°
2026-05-06 07:42 39.24904 -105.88563 22641 ft 433 kts 63°
2026-05-06 07:42 39.26162 -105.85055 22165 ft 429 kts 63°
2026-05-06 07:43 39.27410 -105.81571 21692 ft 426 kts 63°
2026-05-06 07:43 39.28631 -105.78157 21288 ft 422 kts 63°
2026-05-06 07:43 39.29857 -105.74728 20837 ft 418 kts 63°
2026-05-06 07:43 39.31069 -105.71333 20404 ft 415 kts 63°
2026-05-06 07:44 39.32277 -105.67948 19976 ft 412 kts 63°
2026-05-06 07:44 39.33480 -105.64605 19628 ft 406 kts 62°
2026-05-06 07:44 39.34677 -105.61328 19363 ft 402 kts 62°
2026-05-06 07:44 39.35871 -105.58069 19041 ft 399 kts 62°
2026-05-06 07:45 39.37041 -105.54875 18715 ft 397 kts 62°
2026-05-06 07:45 39.38212 -105.51665 18381 ft 392 kts 62°
2026-05-06 07:45 39.39365 -105.48495 18099 ft 387 kts 62°
2026-05-06 07:45 39.40503 -105.45366 17721 ft 383 kts 63°
2026-05-06 07:46 39.41530 -105.42203 17313 ft 382 kts 73°
2026-05-06 07:46 39.41801 -105.38820 17016 ft 377 kts 89°
2026-05-06 07:46 39.41803 -105.35460 16730 ft 372 kts 90°
2026-05-06 07:46 39.41792 -105.32129 16416 ft 367 kts 90°
2026-05-06 07:47 39.41785 -105.28849 16118 ft 363 kts 90°
2026-05-06 07:47 39.41786 -105.25607 15821 ft 358 kts 90°
2026-05-06 07:47 39.41791 -105.23485 15627 ft 355 kts 90°
2026-05-06 07:47 39.41801 -105.20302 15364 ft 351 kts 90°
2026-05-06 07:48 39.41814 -105.17159 15083 ft 347 kts 90°
2026-05-06 07:48 39.41826 -105.14047 14794 ft 343 kts 90°
2026-05-06 07:48 39.41839 -105.10969 14514 ft 340 kts 90°
2026-05-06 07:48 39.41851 -105.07927 14238 ft 337 kts 90°
2026-05-06 07:49 39.41863 -105.04911 13987 ft 333 kts 90°
2026-05-06 07:49 39.41874 -105.01929 13682 ft 330 kts 90°
2026-05-06 07:49 39.41883 -104.98974 13376 ft 326 kts 90°
2026-05-06 07:49 39.41891 -104.96054 13093 ft 322 kts 90°
2026-05-06 07:50 39.41942 -104.93211 12805 ft 319 kts 85°
2026-05-06 07:50 39.42183 -104.90371 12492 ft 317 kts 83°
2026-05-06 07:50 39.42460 -104.87570 12276 ft 311 kts 83°
2026-05-06 07:50 39.42729 -104.84804 11913 ft 311 kts 83°
2026-05-06 07:51 39.42987 -104.82030 11601 ft 309 kts 84°
2026-05-06 07:51 39.43234 -104.79272 11306 ft 307 kts 84°
2026-05-06 07:51 39.43487 -104.76544 11050 ft 303 kts 81°
2026-05-06 07:51 39.44068 -104.73971 10991 ft 292 kts 69°
2026-05-06 07:52 39.44837 -104.71590 10972 ft 281 kts 65°
2026-05-06 07:52 39.45940 -104.69607 10965 ft 267 kts 37°
2026-05-06 07:52 39.47501 -104.68439 10970 ft 255 kts 19°
2026-05-06 07:52 39.49188 -104.67785 10986 ft 252 kts 13°
2026-05-06 07:53 39.50885 -104.67230 10988 ft 250 kts 13°
2026-05-06 07:53 39.52569 -104.66675 10982 ft 250 kts 13°
2026-05-06 07:53 39.54282 -104.66264 10835 ft 254 kts
2026-05-06 07:53 39.56061 -104.66240 10499 ft 262 kts 358°
2026-05-06 07:54 39.57894 -104.66268 10142 ft 265 kts 359°
2026-05-06 07:54 39.59749 -104.66293 9771 ft 268 kts
2026-05-06 07:54 39.61612 -104.66294 9393 ft 266 kts
2026-05-06 07:54 39.63448 -104.66276 9030 ft 261 kts
2026-05-06 07:55 39.65253 -104.66254 8698 ft 256 kts
2026-05-06 07:55 39.67017 -104.66234 8372 ft 251 kts
2026-05-06 07:55 39.68708 -104.66215 8094 ft 238 kts
2026-05-06 07:55 39.70299 -104.66197 7813 ft 218 kts
2026-05-06 07:56 39.71733 -104.66182 7666 ft 196 kts
2026-05-06 07:56 39.73026 -104.66168 7488 ft 177 kts
2026-05-06 07:56 39.74182 -104.66154 7302 ft 156 kts
2026-05-06 07:56 39.75227 -104.66141 7080 ft 146 kts
2026-05-06 07:57 39.76248 -104.66128 6882 ft 149 kts
2026-05-06 07:57 39.77305 -104.66115 6728 ft 152 kts
2026-05-06 07:57 39.78354 -104.66104 6483 ft 148 kts
2026-05-06 07:57 39.79364 -104.66092 6218 ft 143 kts
2026-05-06 07:58 39.80364 -104.66081 6006 ft 144 kts
2026-05-06 07:58 39.81347 -104.66069 5773 ft 142 kts
2026-05-06 07:58 39.82325 -104.66059 5574 ft 139 kts
2026-05-06 07:58 39.83292 -104.66056 5371 ft 136 kts
2026-05-06 07:59 39.84016 -104.66039 5368 ft 57 kts
2026-05-06 07:59 39.84386 -104.66037 5377 ft 50 kts 359°
2026-05-06 07:59 39.84722 -104.66037 5375 ft 48 kts
2026-05-06 07:59 39.85057 -104.66041 5375 ft 50 kts 351°
2026-05-06 08:00 39.85338 -104.66189 5384 ft 40 kts 331°
2026-05-06 08:00 39.85572 -104.66237 5390 ft 34 kts 359°
2026-05-06 08:00 39.85679 -104.66337 5390 ft 22 kts 272°
2026-05-06 08:00 39.85662 -104.66602 5384 ft 37 kts 263°
2026-05-06 08:01 39.85704 -104.66817 5376 ft 15 kts 357°
2026-05-06 08:01 39.85720 -104.66763 5381 ft 15 kts 98°
2026-05-06 08:01 39.85703 -104.66537 5390 ft 29 kts 89°
2026-05-06 08:01 39.85703 -104.66452 5393 ft 6 kts 45°
2026-05-06 08:02 39.85801 -104.66439 5388 ft 22 kts
2026-05-06 08:02 39.85967 -104.66466 5389 ft 21 kts 310°
2026-05-06 08:02 39.86101 -104.66515 5384 ft 22 kts 332°
2026-05-06 08:02 39.86278 -104.66561 5377 ft 33 kts
2026-05-06 08:03 39.86484 -104.66606 5375 ft 32 kts 316°
2026-05-06 08:03 39.86492 -104.66869 5376 ft 32 kts 271°
2026-05-06 08:03 39.86494 -104.67148 5374 ft 29 kts 266°
2026-05-06 08:03 39.86474 -104.67453 5374 ft 28 kts 261°
2026-05-06 08:04 39.86365 -104.67546 5373 ft 0 kts 180°